Regional Weather Roundup
Issued by NWS Raleigh/Durham, NC

Home | Current Version | Previous Version | Text Only | Print | Product List | Glossary On
Versions: 1 2 3 4 5 6 7 8 9 10 11 12 13 14 15 16 17 18 19 20 21 22 23 24 25 26 27 28 29 30 31 32 33 34 35 36 37 38 39 40 41 42 43 44 45 46 47 48 49 50
000
ASUS42 KRAH 271810
RWRRAH
NORTH CAROLINA WEATHER ROUNDUP
NATIONAL WEATHER SERVICE RALEIGH NC
200 PM EDT SAT AUG 27 2016

NOTE: "FAIR" INDICATES FEW OR NO CLOUDS BELOW 12,000 FEET WITH NO
SIGNIFICANT WEATHER AND/OR OBSTRUCTIONS TO VISIBILITY.

NCZ001-053-055-056-065-067-271900-
WESTERN NORTH CAROLINA

CITY           SKY/WX    TMP DP  RH WIND       PRES   REMARKS
ASHEVILLE      MOSUNNY   86  64  47 E8        30.22F
JEFFERSON      NOT AVBL
MORGANTON      MOSUNNY   92  70  47 SE5       30.20F HX  97
HICKORY        SUNNY     92  71  50 NE6       30.15F HX  98
RUTHERFORDTON    N/A     92  70  49 E8        30.14F HX  97
MOUNT AIRY     MOSUNNY   89  76  64 E3        30.19S HX 100
BOONE          MOSUNNY   81  66  60 SE7       30.29F
$$

NCZ021-022-025-041-071-084-088-271900-
CENTRAL NORTH CAROLINA

CITY           SKY/WX    TMP DP  RH WIND       PRES   REMARKS
CHARLOTTE      MOSUNNY   94  67  41 E8        30.12F HX  97
GREENSBORO     CLOUDY    90  71  53 E8        30.14S HX  96
WINSTON-SALEM  MOSUNNY   92  71  50 NE5       30.15F HX  98
RALEIGH-DURHAM MOSUNNY   97  70  41 E12       30.10F HX 103
FORT BRAGG     SUNNY     95  72  47 E7        30.09F HX 102
FAYETTEVILLE   PTSUNNY   94  71  47 E8        30.09F HX 101
BURLINGTON     MOSUNNY   96  73  47 VRB6      30.11F HX 105
LAURINBURG     PTSUNNY   95  71  45 E10       30.10F HX 102
$$

NCZ011-015-027-028-043-044-047-080-103-271900-
NORTHEASTERN NORTH CAROLINA

CITY           SKY/WX    TMP DP  RH WIND       PRES   REMARKS
ROCKY MT-WILSO MOSUNNY   95  73  48 E5        30.10F HX 104
GREENVILLE     PTSUNNY   93  72  49 E9        30.11S HX 100
WASHINGTON     SUNNY     91  75  58 NE9       30.10S HX 101
ELIZABETH CITY MOSUNNY   91  70  49 N9        30.11S HX  96
MANTEO         SUNNY     86  76  73 NE9       30.11S HX  96
CAPE HATTERAS  SUNNY     89  75  63 VRB6      30.10F HX  99
$$

NCZ078-087-090-091-093-098-101-271900-
SOUTHEASTERN NORTH CAROLINA

CITY           SKY/WX    TMP DP  RH WIND       PRES   REMARKS
LUMBERTON      PTSUNNY   94  73  50 SE9       30.08F HX 103
GOLDSBORO      MOSUNNY   96  73  47 E5        30.08F HX 105
KINSTON        SUNNY     91  73  55 E6        30.10F HX 100
KENANSVILLE    SUNNY     91  73  55 E7        30.10F HX 100
NEW BERN       MOSUNNY   92  74  55 VRB5      30.10F HX 101
CHERRY POINT   SUNNY     93  73  52 NE7       30.10F HX 102
BEAUFORT       PTSUNNY   88  77  69 SE7       30.09S HX 100
JACKSONVILLE   MOSUNNY   92  73  53 E8        30.09S HX 100
WILMINGTON     SUNNY     89  73  59 E10       30.10S HX  97
$$




USA.gov is the U.S. government's official web portal to all federal, state and local government web resources and services.